Weather in Rewal

Poland     54°04′43″N   15°00′41″E
temp.,
°C
wind,
m/s
gust,
m/s
humid.,
%
clouds,
%
prec.,
mm/h
press.,
hPa
HPBL,
m
27 november, sat
sat2701:00+4se3568100 0.0 993324
04:00+3ese3576100 0.1 993351
07:00+3ese458447 0.1 993221
10:00+3se358424 0.0 994317
13:00+4se45706 0.0 994723
16:00+3ese4579100 0.0 995227
19:00+2sse4786100 0.1 996431
22:00+2se4798100 0.7 996310
28 november, sun
sun2801:00+2sse5997100 0.9 996368
04:00+2s4691100 0.1 995341
07:00+2ssw4695100 0.1 996485
10:00+3ssw5676100 0.1 997809
13:00+4ssw567092 0.1 997863
16:00+2sse338080 0.0 997225
19:000s338789 0.0 99893
22:000se238894 0.0 99865
29 november, mon
mon2901:000e1185100 0.0 99856
04:00+1n1183100 0.0 998109
07:00+3nw4675100 0.0 998304
10:00+5nnw5769100 0.1 999767
13:00+5nne71070100 1.2 999936
16:00+5n81071100 0.1 1001800
19:00+4n71067100 0.3 1003868
22:00+3nnw687050 0.2 1004716
30 november, tue
tue3001:00+3nw696699 0.3 1004525
04:00+3wnw7968100 0.1 1004914
07:00+1wsw7119164 0.3 1003647
10:00+1ssw9158876 0.0 999732
13:00+2sw122096100 2.5 9941129
16:00+4wsw111793100 1.4 9911258
19:00+5w131880100 1.8 9901212
22:00+4nw121583100 0.4 9931251
1 december, wed
wed101:00+3nw10127794 0.9 9991048
04:00+3nw5768100 0.1 1001613
07:00+2ssw3582100 0.1 1001295
10:00+1sse51099100 1.1 998324
13:00+2sse91698100 7.6 992505
16:00+6sw91695100 4.4 9881062
19:00+7sw101990100 6.1 9851110
22:00+7sw122089100 0.9 9821280